Flag for Vietnam Weather past 2 weeks in Hanoi, Vietnam

Now
70 °F

Partly cloudy.


Feels Like: 70 °F
Forecast: 61 / 68 °F
Wind: 10 mph from East

Location: Ha Noi Airport

Current Time: Jan 30, 2015 at 1:36:07 AM

Latest Report: Jan 30, 2015 at 1:00 AM


Visibility: 4 mi

Pressure: 30.04 "Hg

Humidity: 78%

Dew point: 63 °F

Location of HanoiLocation

Historic Weather in Hanoi — Graph

°F

Hanoi temperature yesterday

Maximum temperature yesterday: 79 °F (at 12:30 PM)
Minimum temperature yesterday: 70 °F (at 12:00 AM)
Average temperature yesterday: 72 °F

Past Weeks' High & Low Weather Summary

 TemperatureHumidityPressure
High81 °F (Jan 25, 3:00 PM)100% (Jan 15, 7:30 AM)30.30 "Hg (Jan 15, 7:30 AM)
Low50 °F (Jan 15, 5:00 AM)33% (Jan 17, 3:30 PM)29.86 "Hg (Jan 24, 3:00 PM)
Average66 °F75%30.08 "Hg
* Reported Midnight between Jan 14 and Jan 15 — Jan 30 12:30 AM, Hanoi, Weather by CustomWeather, © 2014

Note: Actual official high and low records may vary slightly from our data, if they occured in-between our weather recording intervals... More about our weather records

Advertising

Hanoi weather history for previous 24 hours

 ConditionsComfort  
Time TempWeatherWind HumidityBarometerVisibility
12:30 AM
Jan 30
70 °FPassing clouds.9 mph78%30.04 "Hg4 mi
12:00 AM70 °FPassing clouds.10 mph78%30.04 "Hg4 mi
11:30 PM
Jan 29
70 °FPartly cloudy.9 mph78%30.07 "Hg4 mi
11:00 PM70 °FPartly cloudy.10 mph83%30.07 "Hg4 mi
10:30 PM70 °FMild.10 mph83%30.07 "Hg4 mi
10:00 PM70 °FPassing clouds.9 mph83%30.07 "Hg4 mi
9:30 PM70 °FPassing clouds.12 mph83%30.07 "Hg4 mi
9:00 PM70 °FPartly cloudy.12 mph78%30.04 "Hg6 mi
8:30 PM70 °FPassing clouds.13 mph78%30.04 "Hg6 mi
8:00 PM72 °FPartly cloudy.10 mph73%30.04 "HgN/A
7:30 PM72 °FPartly cloudy.10 mph78%30.04 "Hg5 mi
6:30 PM72 °FPartly cloudy.13 mph78%30.01 "Hg6 mi
6:00 PM72 °FPartly cloudy.16 mph78%29.98 "Hg6 mi
5:30 PM72 °FPartly sunny.16 mph78%29.98 "Hg6 mi
5:00 PM73 °FPartly sunny.17 mph74%29.98 "Hg6 mi
4:30 PM73 °FPartly sunny.18 mph74%29.98 "Hg6 mi
4:00 PM73 °FPartly sunny.18 mph74%29.95 "HgN/A
3:30 PM75 °FPartly sunny.15 mph74%29.95 "HgN/A
3:00 PM77 °FPartly sunny.14 mph65%29.95 "HgN/A
2:30 PM77 °FPartly sunny.14 mph65%29.95 "HgN/A
2:00 PM77 °FBroken clouds.14 mph69%29.95 "HgN/A
1:30 PM77 °FPartly sunny.14 mph65%29.98 "HgN/A
1:00 PM77 °FBroken clouds.14 mph65%29.98 "HgN/A
12:30 PM79 °FBroken clouds.15 mph61%30.01 "HgN/A
12:00 PM77 °FBroken clouds.15 mph61%30.01 "HgN/A
11:30 AM77 °FBroken clouds.15 mph61%30.01 "HgN/A
11:00 AM77 °FPartly sunny.15 mph61%30.04 "HgN/A
10:30 AM75 °FPartly sunny.13 mph65%30.04 "HgN/A
10:00 AM75 °FPartly sunny.14 mph69%30.04 "HgN/A
9:30 AM75 °FPartly sunny.13 mph74%30.04 "HgN/A
9:00 AM72 °FPartly sunny.13 mph83%30.01 "Hg5 mi
8:30 AM72 °FPartly sunny.13 mph83%30.01 "Hg4 mi
8:00 AM70 °FPartly sunny.12 mph88%29.98 "Hg4 mi
7:30 AM70 °FPartly sunny.12 mph88%29.98 "Hg4 mi
7:00 AM70 °FBroken clouds.10 mph88%29.95 "Hg3 mi
6:30 AM70 °FPartly cloudy.10 mph88%29.95 "Hg3 mi
6:00 AM70 °FPartly cloudy.9 mph88%29.95 "Hg3 mi
5:30 AM70 °FPartly cloudy.7 mph88%29.92 "Hg3 mi
5:00 AM70 °FPartly cloudy.9 mph88%29.92 "Hg3 mi
4:30 AM70 °FPartly cloudy.9 mph88%29.92 "Hg3 mi
4:00 AM70 °FFog.8 mph88%29.92 "Hg3 mi
3:30 AM70 °FFog.8 mph88%29.92 "Hg3 mi
3:00 AM70 °FFog.10 mph88%29.92 "Hg2 mi
2:30 AM70 °FFog.8 mph88%29.95 "Hg2 mi
2:00 AM70 °FPassing clouds.8 mph88%29.95 "Hg3 mi
1:30 AM70 °FPassing clouds.7 mph88%29.95 "Hg4 mi
1:00 AM70 °FPassing clouds.8 mph88%29.95 "Hg3 mi
Weather by CustomWeather, © 2014

See weather overviewHow to use our weather pages